Time,TemperatureF,DewpointF,PressureIn,WindDirection,WindDirectionDegrees,WindSpeedMPH,WindSpeedGustMPH,Humidity,HourlyPrecipIn,Conditions,Clouds,dailyrainin,SoftwareType,DateUTC
2013-05-14 00:10:00,53.6,29.8,28.15,NNE,22,6.0,6.0,40,0.00,CLR,,0.00,WeatherDisplay:10.37,2013-05-14 04:10:00,
2013-05-14 00:20:00,53.6,29.8,28.15,NNE,22,6.0,6.0,40,0.00,CLR,,0.00,WeatherDisplay:10.37,2013-05-14 04:20:00,
2013-05-14 00:30:00,53.6,29.8,28.15,NNE,22,6.0,6.0,40,0.00,CLR,,0.00,WeatherDisplay:10.37,2013-05-14 04:30:00,
2013-05-14 00:40:00,53.6,29.8,28.15,NNE,22,6.0,6.0,40,0.00,CLR,,0.00,WeatherDisplay:10.37,2013-05-14 04:40:00,
2013-05-14 00:50:00,53.6,29.8,28.15,NNE,22,6.0,6.0,40,0.00,CLR,,0.00,WeatherDisplay:10.37,2013-05-14 04:50:00,
2013-05-14 01:00:00,53.6,29.8,28.15,NNE,22,6.0,6.0,40,0.00,CLR,,0.00,WeatherDisplay:10.37,2013-05-14 05:00:00,
2013-05-14 01:10:00,53.6,29.8,28.15,NNE,22,6.0,6.0,40,0.00,CLR,,0.00,WeatherDisplay:10.37,2013-05-14 05:10:00,
2013-05-14 01:20:00,53.6,29.8,28.15,NNE,22,6.0,6.0,40,0.00,CLR,,0.00,WeatherDisplay:10.37,2013-05-14 05:20:00,
2013-05-14 01:30:00,53.6,29.8,28.15,NNE,22,6.0,6.0,40,0.00,CLR,,0.00,WeatherDisplay:10.37,2013-05-14 05:30:00,
2013-05-14 01:40:00,53.6,29.8,28.15,NNE,22,6.0,6.0,40,0.00,CLR,,0.00,WeatherDisplay:10.37,2013-05-14 05:40:00,
2013-05-14 01:50:00,53.6,29.8,28.15,NNE,22,6.0,6.0,40,0.00,CLR,,0.00,WeatherDisplay:10.37,2013-05-14 05:50:00,
2013-05-14 02:00:00,53.6,29.8,28.15,NNE,22,6.0,6.0,40,0.00,CLR,,0.00,WeatherDisplay:10.37,2013-05-14 06:00:00,
2013-05-14 02:10:00,53.6,29.8,28.15,NNE,22,6.0,6.0,40,0.00,CLR,,0.00,WeatherDisplay:10.37,2013-05-14 06:10:00,
2013-05-14 02:20:00,53.6,29.8,28.15,NNE,22,6.0,6.0,40,0.00,CLR,,0.00,WeatherDisplay:10.37,2013-05-14 06:20:00,
2013-05-14 02:30:00,53.6,29.8,28.15,NNE,22,6.0,6.0,40,0.00,CLR,,0.00,WeatherDisplay:10.37,2013-05-14 06:30:00,
2013-05-14 02:40:00,53.6,29.8,28.15,NNE,22,6.0,6.0,40,0.00,CLR,,0.00,WeatherDisplay:10.37,2013-05-14 06:40:00,
2013-05-14 02:50:00,53.6,29.8,28.15,NNE,22,6.0,6.0,40,0.00,CLR,,0.00,WeatherDisplay:10.37,2013-05-14 06:50:00,
2013-05-14 03:00:00,53.6,29.8,28.15,NNE,22,6.0,6.0,40,0.00,CLR,,0.00,WeatherDisplay:10.37,2013-05-14 07:00:00,
2013-05-14 03:10:00,53.6,29.8,28.15,NNE,22,6.0,6.0,40,0.00,CLR,,0.00,WeatherDisplay:10.37,2013-05-14 07:10:00,
2013-05-14 03:20:00,53.6,29.8,28.15,NNE,22,6.0,6.0,40,0.00,CLR,,0.00,WeatherDisplay:10.37,2013-05-14 07:20:00,
2013-05-14 03:30:00,53.6,29.8,28.15,NNE,22,6.0,6.0,40,0.00,CLR,,0.00,WeatherDisplay:10.37,2013-05-14 07:30:00,
2013-05-14 03:40:00,53.6,29.8,28.15,NNE,22,6.0,6.0,40,0.00,CLR,,0.00,WeatherDisplay:10.37,2013-05-14 07:40:00,
2013-05-14 03:50:00,53.6,29.8,28.15,NNE,22,6.0,6.0,40,0.00,CLR,,0.00,WeatherDisplay:10.37,2013-05-14 07:50:00,
2013-05-14 04:00:00,53.6,29.8,28.15,NNE,22,6.0,6.0,40,0.00,CLR,,0.00,WeatherDisplay:10.37,2013-05-14 08:00:00,
2013-05-14 04:10:00,53.6,29.8,28.15,NNE,22,6.0,6.0,40,0.00,CLR,,0.00,WeatherDisplay:10.37,2013-05-14 08:10:00,
2013-05-14 04:20:00,53.6,29.8,28.15,NNE,22,6.0,6.0,40,0.00,CLR,,0.00,WeatherDisplay:10.37,2013-05-14 08:20:00,
2013-05-14 04:30:00,53.6,29.8,28.15,NNE,22,6.0,6.0,40,0.00,CLR,,0.00,WeatherDisplay:10.37,2013-05-14 08:30:00,
2013-05-14 04:40:00,53.6,29.8,28.15,NNE,22,6.0,6.0,40,0.00,CLR,,0.00,WeatherDisplay:10.37,2013-05-14 08:40:00,
2013-05-14 04:50:00,53.6,29.8,28.15,NNE,22,6.0,6.0,40,0.00,CLR,,0.00,WeatherDisplay:10.37,2013-05-14 08:50:00,
2013-05-14 05:00:00,53.6,29.8,28.15,NNE,22,6.0,6.0,40,0.00,CLR,,0.00,WeatherDisplay:10.37,2013-05-14 09:00:00,
2013-05-14 05:10:00,53.6,29.8,28.15,NNE,22,6.0,6.0,40,0.00,CLR,,0.00,WeatherDisplay:10.37,2013-05-14 09:10:00,
2013-05-14 05:20:00,53.6,29.8,28.15,NNE,22,6.0,6.0,40,0.00,CLR,,0.00,WeatherDisplay:10.37,2013-05-14 09:20:00,
2013-05-14 05:30:00,53.6,29.8,28.15,NNE,22,6.0,6.0,40,0.00,CLR,,0.00,WeatherDisplay:10.37,2013-05-14 09:30:00,
2013-05-14 05:40:00,53.6,29.8,28.15,NNE,22,6.0,6.0,40,0.00,CLR,,0.00,WeatherDisplay:10.37,2013-05-14 09:40:00,
2013-05-14 05:50:00,53.6,29.8,28.15,NNE,22,6.0,6.0,40,0.00,CLR,,0.00,WeatherDisplay:10.37,2013-05-14 09:50:00,
2013-05-14 06:00:00,53.6,29.8,28.15,NNE,22,6.0,6.0,40,0.00,CLR,,0.00,WeatherDisplay:10.37,2013-05-14 10:00:00,
2013-05-14 06:10:00,53.6,29.8,28.15,NNE,22,6.0,6.0,40,0.00,CLR,,0.00,WeatherDisplay:10.37,2013-05-14 10:10:00,
2013-05-14 06:20:00,53.6,29.8,28.15,NNE,22,6.0,6.0,40,0.00,CLR,,0.00,WeatherDisplay:10.37,2013-05-14 10:20:00,
2013-05-14 06:30:00,53.6,29.8,28.15,NNE,22,6.0,6.0,40,0.00,CLR,,0.00,WeatherDisplay:10.37,2013-05-14 10:30:00,
2013-05-14 06:40:00,53.6,29.8,28.15,NNE,22,6.0,6.0,40,0.00,CLR,,0.00,WeatherDisplay:10.37,2013-05-14 10:40:00,
2013-05-14 06:50:00,53.6,29.8,28.15,NNE,22,6.0,6.0,40,0.00,CLR,,0.00,WeatherDisplay:10.37,2013-05-14 10:50:00,
2013-05-14 07:00:00,53.6,29.8,28.15,NNE,22,6.0,6.0,40,0.00,CLR,,0.00,WeatherDisplay:10.37,2013-05-14 11:00:00,
2013-05-14 07:10:00,53.6,29.8,28.15,NNE,22,6.0,6.0,40,0.00,CLR,,0.00,WeatherDisplay:10.37,2013-05-14 11:10:00,
2013-05-14 07:20:00,53.6,29.8,28.15,NNE,22,6.0,6.0,40,0.00,CLR,,0.00,WeatherDisplay:10.37,2013-05-14 11:20:00,
2013-05-14 07:30:00,53.6,29.8,28.15,NNE,22,6.0,6.0,40,0.00,CLR,,0.00,WeatherDisplay:10.37,2013-05-14 11:30:00,
2013-05-14 07:40:00,53.6,29.8,28.15,NNE,22,6.0,6.0,40,0.00,CLR,,0.00,WeatherDisplay:10.37,2013-05-14 11:40:00,
2013-05-14 07:50:00,53.6,29.8,28.15,NNE,22,6.0,6.0,40,0.00,CLR,,0.00,WeatherDisplay:10.37,2013-05-14 11:50:00,
2013-05-14 08:00:00,53.6,29.8,28.15,NNE,22,6.0,6.0,40,0.00,CLR,,0.00,WeatherDisplay:10.37,2013-05-14 12:00:00,
2013-05-14 08:10:00,53.6,29.8,28.15,NNE,22,6.0,6.0,40,0.00,CLR,,0.00,WeatherDisplay:10.37,2013-05-14 12:10:00,
2013-05-14 08:20:00,53.6,29.8,28.15,NNE,22,6.0,6.0,40,0.00,CLR,,0.00,WeatherDisplay:10.37,2013-05-14 12:20:00,
2013-05-14 08:30:00,53.6,29.8,28.15,NNE,22,6.0,6.0,40,0.00,CLR,,0.00,WeatherDisplay:10.37,2013-05-14 12:30:00,
2013-05-14 08:40:00,53.6,29.8,28.15,NNE,22,6.0,6.0,40,0.00,CLR,,0.00,WeatherDisplay:10.37,2013-05-14 12:40:00,
2013-05-14 08:50:00,53.6,29.8,28.15,NNE,22,6.0,6.0,40,0.00,CLR,,0.00,WeatherDisplay:10.37,2013-05-14 12:50:00,
2013-05-14 09:00:00,53.6,29.8,28.15,NNE,22,6.0,6.0,40,0.00,CLR,,0.00,WeatherDisplay:10.37,2013-05-14 13:00:00,
2013-05-14 09:10:00,53.6,29.8,28.15,NNE,22,6.0,6.0,40,0.00,CLR,,0.00,WeatherDisplay:10.37,2013-05-14 13:10:00,
2013-05-14 09:30:00,53.1,26.8,28.24,SSW,194,0.0,4.0,36,0.00,CLR,,0.00,WeatherDisplay:10.37,2013-05-14 13:30:00,
2013-05-14 09:40:00,54.5,27.4,28.24,SSW,206,3.0,6.0,35,0.00,CLR,,0.00,WeatherDisplay:10.37,2013-05-14 13:40:00,
2013-05-14 09:50:00,55.6,29.1,28.24,South,186,1.0,6.0,36,0.00,CLR,,0.00,WeatherDisplay:10.37,2013-05-14 13:50:00,
2013-05-14 10:00:00,56.7,27.9,28.24,SSW,202,5.0,7.0,33,0.00,CLR,,0.00,WeatherDisplay:10.37,2013-05-14 14:00:00,
2013-05-14 10:10:00,57.7,28.8,28.24,SSW,198,3.0,5.0,33,0.00,CLR,,0.00,WeatherDisplay:10.37,2013-05-14 14:10:00,
2013-05-14 10:20:00,58.1,28.4,28.24,SSW,204,3.0,7.0,32,0.00,CLR,,0.00,WeatherDisplay:10.37,2013-05-14 14:20:00,
2013-05-14 10:30:00,59.1,28.5,28.24,SSW,194,2.0,8.0,31,0.00,CLR,,0.00,WeatherDisplay:10.37,2013-05-14 14:30:00,
2013-05-14 10:40:00,60.2,26.9,28.24,South,187,2.0,6.0,28,0.00,CLR,,0.00,WeatherDisplay:10.37,2013-05-14 14:40:00,
2013-05-14 10:50:00,60.6,27.3,28.24,SSW,205,2.0,6.0,28,0.00,CLR,,0.00,WeatherDisplay:10.37,2013-05-14 14:50:00,
2013-05-14 11:00:00,61.0,26.8,28.24,SSW,203,5.0,9.0,27,0.00,CLR,,0.00,WeatherDisplay:10.37,2013-05-14 15:00:00,
2013-05-14 11:10:00,61.2,26.0,28.24,SSW,198,6.0,10.0,26,0.00,CLR,,0.00,WeatherDisplay:10.37,2013-05-14 15:10:00,
2013-05-14 11:20:00,61.2,25.0,28.24,SW,232,3.0,7.0,25,0.00,CLR,,0.00,WeatherDisplay:10.37,2013-05-14 15:20:00,
2013-05-14 11:30:00,61.5,26.2,28.24,SSW,200,5.0,6.0,26,0.00,CLR,,0.00,WeatherDisplay:10.37,2013-05-14 15:30:00,
2013-05-14 11:40:00,62.1,27.7,28.24,SW,214,3.0,6.0,27,0.00,CLR,,0.00,WeatherDisplay:10.37,2013-05-14 15:40:00,
2013-05-14 11:50:00,61.5,25.3,28.24,SSW,205,6.0,8.0,25,0.00,CLR,,0.00,WeatherDisplay:10.37,2013-05-14 15:50:00,
2013-05-14 12:00:00,62.6,26.2,28.24,WSW,239,3.0,6.0,25,0.00,CLR,,0.00,WeatherDisplay:10.37,2013-05-14 16:00:00,
2013-05-14 12:10:00,62.6,26.2,28.24,SW,222,6.0,10.0,25,0.00,CLR,,0.00,WeatherDisplay:10.37,2013-05-14 16:10:00,
2013-05-14 12:20:00,62.6,26.2,28.24,South,189,5.0,10.0,25,0.00,CLR,,0.00,WeatherDisplay:10.37,2013-05-14 16:20:00,
2013-05-14 12:30:00,63.4,27.9,28.24,SSW,196,5.0,9.0,26,0.00,CLR,,0.00,WeatherDisplay:10.37,2013-05-14 16:30:00,
2013-05-14 12:40:00,64.0,27.5,28.21,SSW,206,1.0,6.0,25,0.00,CLR,,0.00,WeatherDisplay:10.37,2013-05-14 16:40:00,
2013-05-14 12:50:00,64.4,27.8,28.21,South,191,3.0,5.0,25,0.00,CLR,,0.00,WeatherDisplay:10.37,2013-05-14 16:50:00,
2013-05-14 13:00:00,64.4,28.8,28.21,SSW,202,7.0,7.0,26,0.00,CLR,,0.00,WeatherDisplay:10.37,2013-05-14 17:00:00,
2013-05-14 13:10:00,65.0,32.8,28.21,SSW,198,3.0,6.0,30,0.00,CLR,,0.00,WeatherDisplay:10.37,2013-05-14 17:10:00,
2013-05-14 13:20:00,65.7,29.8,28.21,SSW,203,3.0,13.0,26,0.00,CLR,,0.00,WeatherDisplay:10.37,2013-05-14 17:20:00,
2013-05-14 13:30:00,66.0,32.8,28.21,SW,214,5.0,9.0,29,0.00,CLR,,0.00,WeatherDisplay:10.37,2013-05-14 17:30:00,
2013-05-14 13:40:00,66.2,32.1,28.21,SSW,196,5.0,8.0,28,0.00,CLR,,0.00,WeatherDisplay:10.37,2013-05-14 17:40:00,
2013-05-14 13:50:00,66.9,31.8,28.21,SSW,206,3.0,8.0,27,0.00,CLR,,0.00,WeatherDisplay:10.37,2013-05-14 17:50:00,
2013-05-14 14:00:00,67.3,33.0,28.21,SW,214,3.0,13.0,28,0.00,CLR,,0.00,WeatherDisplay:10.37,2013-05-14 18:00:00,
2013-05-14 14:10:00,68.0,30.8,28.21,SW,218,3.0,6.0,25,0.00,CLR,,0.00,WeatherDisplay:10.37,2013-05-14 18:10:00,
2013-05-14 14:20:00,68.4,31.1,28.21,SSW,213,2.0,6.0,25,0.00,CLR,,0.00,WeatherDisplay:10.37,2013-05-14 18:20:00,
2013-05-14 14:30:00,69.0,32.7,28.21,SSW,205,5.0,6.0,26,0.00,CLR,,0.00,WeatherDisplay:10.37,2013-05-14 18:30:00,
2013-05-14 14:40:00,69.3,32.9,28.21,SSW,205,3.0,7.0,26,0.00,CLR,,0.00,WeatherDisplay:10.37,2013-05-14 18:40:00,
2013-05-14 14:50:00,69.4,31.0,28.18,SW,228,3.0,6.0,24,0.00,CLR,,0.00,WeatherDisplay:10.37,2013-05-14 18:50:00,
2013-05-14 15:00:00,69.4,30.0,28.18,SSW,203,5.0,10.0,23,0.00,CLR,,0.00,WeatherDisplay:10.37,2013-05-14 19:00:00,
2013-05-14 15:10:00,70.0,34.4,28.21,SSE,159,3.0,6.0,27,0.00,CLR,,0.00,WeatherDisplay:10.37,2013-05-14 19:10:00,
2013-05-14 15:20:00,70.5,33.0,28.18,SSW,206,6.0,8.0,25,0.00,CLR,,0.00,WeatherDisplay:10.37,2013-05-14 19:20:00,
2013-05-14 15:30:00,70.5,34.9,28.18,SW,214,7.0,8.0,27,0.00,CLR,,0.00,WeatherDisplay:10.37,2013-05-14 19:30:00,
2013-05-14 15:40:00,71.1,33.4,28.18,SSW,201,3.0,10.0,25,0.00,CLR,,0.00,WeatherDisplay:10.37,2013-05-14 19:40:00,
2013-05-14 15:50:00,71.4,32.7,28.18,SSW,197,7.0,9.0,24,0.00,CLR,,0.00,WeatherDisplay:10.37,2013-05-14 19:50:00,
2013-05-14 16:00:00,71.9,32.1,28.18,SW,216,5.0,7.0,23,0.00,CLR,,0.00,WeatherDisplay:10.37,2013-05-14 20:00:00,
2013-05-14 16:10:00,71.8,35.0,28.18,SSW,197,5.0,9.0,26,0.00,CLR,,0.00,WeatherDisplay:10.37,2013-05-14 20:10:00,
2013-05-14 16:20:00,72.0,32.1,28.18,SSW,209,5.0,7.0,23,0.00,CLR,,0.00,WeatherDisplay:10.37,2013-05-14 20:20:00,
2013-05-14 16:30:00,72.1,34.3,28.18,SSW,204,8.0,9.0,25,0.00,CLR,,0.00,WeatherDisplay:10.37,2013-05-14 20:30:00,
2013-05-14 16:40:00,72.7,36.8,28.18,SSW,198,7.0,7.0,27,0.00,CLR,,0.00,WeatherDisplay:10.37,2013-05-14 20:40:00,
2013-05-14 16:50:00,72.7,34.8,28.18,SSW,207,5.0,8.0,25,0.00,CLR,,0.00,WeatherDisplay:10.37,2013-05-14 20:50:00,
2013-05-14 17:00:00,73.2,35.3,28.18,SSW,211,6.0,10.0,25,0.00,CLR,,0.00,WeatherDisplay:10.37,2013-05-14 21:00:00,
2013-05-14 17:10:00,73.5,36.5,28.18,SW,227,2.0,13.0,26,0.00,CLR,,0.00,WeatherDisplay:10.37,2013-05-14 21:10:00,
2013-05-14 17:20:00,73.9,33.8,28.18,SW,226,6.0,14.0,23,0.00,CLR,,0.00,WeatherDisplay:10.37,2013-05-14 21:20:00,
2013-05-14 17:30:00,73.6,34.5,28.18,SSW,211,6.0,12.0,24,0.00,CLR,,0.00,WeatherDisplay:10.37,2013-05-14 21:30:00,
2013-05-14 17:40:00,73.8,33.7,28.18,SSW,208,6.0,10.0,23,0.00,CLR,,0.00,WeatherDisplay:10.37,2013-05-14 21:40:00,
2013-05-14 17:50:00,73.9,34.8,28.18,SW,221,5.0,10.0,24,0.00,CLR,,0.00,WeatherDisplay:10.37,2013-05-14 21:50:00,
2013-05-14 18:00:00,74.5,35.3,28.18,SSW,204,3.0,13.0,24,0.00,CLR,,0.00,WeatherDisplay:10.37,2013-05-14 22:00:00,
2013-05-14 18:10:00,74.7,35.5,28.18,SW,235,5.0,9.0,24,0.00,CLR,,0.00,WeatherDisplay:10.37,2013-05-14 22:10:00,
2013-05-14 18:20:00,73.2,34.2,28.15,SW,215,6.0,7.0,24,0.00,CLR,,0.00,WeatherDisplay:10.37,2013-05-14 22:20:00,
2013-05-14 18:30:00,71.3,35.5,28.15,SSW,192,2.0,5.0,27,0.00,CLR,,0.00,WeatherDisplay:10.37,2013-05-14 22:30:00,
2013-05-14 18:40:00,70.3,37.4,28.15,South,190,5.0,6.0,30,0.00,CLR,,0.00,WeatherDisplay:10.37,2013-05-14 22:40:00,
2013-05-14 18:50:00,70.2,38.1,28.15,SSW,199,3.0,6.0,31,0.00,CLR,,0.00,WeatherDisplay:10.37,2013-05-14 22:50:00,
2013-05-14 19:00:00,70.0,38.8,28.15,SSW,202,5.0,6.0,32,0.00,CLR,,0.00,WeatherDisplay:10.37,2013-05-14 23:00:00,
2013-05-14 19:10:00,71.2,39.9,28.15,SW,228,5.0,6.0,32,0.00,CLR,,0.00,WeatherDisplay:10.37,2013-05-14 23:10:00,
2013-05-14 19:20:00,71.6,39.3,28.15,SW,223,3.0,6.0,31,0.00,CLR,,0.00,WeatherDisplay:10.37,2013-05-14 23:20:00,
2013-05-14 19:30:00,70.9,39.5,28.15,SSW,205,3.0,7.0,32,0.00,CLR,,0.00,WeatherDisplay:10.37,2013-05-14 23:30:00,
2013-05-14 19:40:00,69.1,38.8,28.15,SW,225,5.0,7.0,33,0.00,CLR,,0.00,WeatherDisplay:10.37,2013-05-14 23:40:00,
2013-05-14 19:50:00,68.5,38.3,28.15,SW,231,3.0,8.0,33,0.00,CLR,,0.00,WeatherDisplay:10.37,2013-05-14 23:50:00,
2013-05-14 20:00:00,67.8,38.4,28.15,SSW,204,5.0,5.0,34,0.00,CLR,,0.00,WeatherDisplay:10.37,2013-05-15 00:00:00,
2013-05-14 20:10:00,67.2,37.9,28.15,SW,221,2.0,3.0,34,0.00,CLR,,0.00,WeatherDisplay:10.37,2013-05-15 00:10:00,
2013-05-14 20:20:00,66.6,38.0,28.15,SSW,207,2.0,3.0,35,0.00,CLR,,0.00,WeatherDisplay:10.37,2013-05-15 00:20:00,
2013-05-14 20:30:00,66.2,38.4,28.15,SSW,208,2.0,5.0,36,0.00,CLR,,0.00,WeatherDisplay:10.37,2013-05-15 00:30:00,
2013-05-14 20:40:00,65.7,38.7,28.15,SSW,202,3.0,5.0,37,0.00,CLR,,0.00,WeatherDisplay:10.37,2013-05-15 00:40:00,
2013-05-14 20:50:00,65.5,39.2,28.12,South,188,3.0,6.0,38,0.00,CLR,,0.00,WeatherDisplay:10.37,2013-05-15 00:50:00,
2013-05-14 21:00:00,65.3,39.1,28.12,SSW,204,3.0,6.0,38,0.00,CLR,,0.00,WeatherDisplay:10.37,2013-05-15 01:00:00,
2013-05-14 21:10:00,65.0,39.4,28.12,SSW,196,3.0,4.0,39,0.00,CLR,,0.00,WeatherDisplay:10.37,2013-05-15 01:10:00,
2013-05-14 21:20:00,64.9,39.4,28.12,SSW,206,3.0,5.0,39,0.00,CLR,,0.00,WeatherDisplay:10.37,2013-05-15 01:20:00,
2013-05-14 21:30:00,64.9,39.4,28.12,SW,215,2.0,4.0,39,0.00,CLR,,0.00,WeatherDisplay:10.37,2013-05-15 01:30:00,
2013-05-14 21:40:00,64.7,39.2,28.15,SSW,203,3.0,4.0,39,0.00,CLR,,0.00,WeatherDisplay:10.37,2013-05-15 01:40:00,
2013-05-14 21:50:00,64.3,39.5,28.15,SSW,197,3.0,5.0,40,0.00,CLR,,0.00,WeatherDisplay:10.37,2013-05-15 01:50:00,
2013-05-14 22:00:00,64.2,39.4,28.15,SSW,198,2.0,4.0,40,0.00,CLR,,0.00,WeatherDisplay:10.37,2013-05-15 02:00:00,
2013-05-14 22:10:00,64.0,39.8,28.15,SSW,194,2.0,4.0,41,0.00,CLR,,0.00,WeatherDisplay:10.37,2013-05-15 02:10:00,
2013-05-14 22:20:00,64.0,39.8,28.15,SSW,202,3.0,4.0,41,0.00,CLR,,0.00,WeatherDisplay:10.37,2013-05-15 02:20:00,
2013-05-14 22:30:00,63.9,39.7,28.15,SSW,198,3.0,6.0,41,0.00,CLR,,0.00,WeatherDisplay:10.37,2013-05-15 02:30:00,
2013-05-14 22:40:00,63.7,40.8,28.18,SSW,200,3.0,4.0,43,0.00,CLR,,0.00,WeatherDisplay:10.37,2013-05-15 02:40:00,
2013-05-14 22:50:00,63.5,40.6,28.15,SSW,207,2.0,5.0,43,0.00,CLR,,0.00,WeatherDisplay:10.37,2013-05-15 02:50:00,
2013-05-14 23:00:00,63.1,40.9,28.15,SSW,195,3.0,5.0,44,0.00,CLR,,0.00,WeatherDisplay:10.37,2013-05-15 03:00:00,
2013-05-14 23:10:00,63.0,40.7,28.15,SSW,196,2.0,5.0,44,0.00,CLR,,0.00,WeatherDisplay:10.37,2013-05-15 03:10:00,
2013-05-14 23:20:00,62.6,40.9,28.15,SSW,199,3.0,5.0,45,0.00,CLR,,0.00,WeatherDisplay:10.37,2013-05-15 03:20:00,
2013-05-14 23:30:00,62.8,41.1,28.15,South,191,3.0,5.0,45,0.00,CLR,,0.00,WeatherDisplay:10.37,2013-05-15 03:30:00,
2013-05-14 23:40:00,63.0,40.7,28.15,South,187,5.0,6.0,44,0.00,CLR,,0.00,WeatherDisplay:10.37,2013-05-15 03:40:00,
2013-05-14 23:50:00,63.0,41.3,28.15,South,187,5.0,7.0,45,0.00,CLR,,0.00,WeatherDisplay:10.37,2013-05-15 03:50:00,